Observations for Trim Market St
| Time | AQI | Temp °C | Hum % | Pres Pa | CO μg/m³ | H₂S μg/m³ | NO μg/m³ | NO₂ μg/m³ | O₃ μg/m³ | SO₂ μg/m³ | PM1 μg/m³ | PM2.5 μg/m³ | PM10 μg/m³ |
|---|---|---|---|---|---|---|---|---|---|---|---|---|---|
| Thursday 27 August 2026 | |||||||||||||
| 02:38 | 2 | 16.4 | 84 | 2,147,483,647 | 0.29 | 0 | 2.24 | 5.32 | 52.75 | 0 | 12.11 | 14.49 | 19.99 |
| 02:37 | 2 | 16.4 | 84 | 2,147,483,647 | 0.28 | 0 | 2.21 | 7.21 | 54.4 | 0 | 12.11 | 14.95 | 22.7 |
| 02:36 | 2 | 16.4 | 84 | 2,147,483,647 | 0.29 | 0 | 2.19 | 5.22 | 51.85 | 0 | 13.54 | 15.42 | 23.25 |
| 02:35 | 2 | 16.4 | 84 | 2,147,483,647 | 0.3 | 0 | 2.2 | 6.92 | 52.87 | 0 | 12.83 | 15.42 | 23.25 |
| 02:34 | 2 | 16.4 | 84 | 2,147,483,647 | 0.29 | 0 | 2.19 | 5.76 | 51.17 | 0 | 12.11 | 13.09 | 18.37 |
| 02:33 | 2 | 16.4 | 84 | 2,147,483,647 | 0.29 | 0 | 2.17 | 4.9 | 51.14 | 0 | 14.25 | 14.95 | 20.54 |
| 02:32 | 2 | 16.4 | 84 | 2,147,483,647 | 0.29 | 0 | 2.18 | 6.4 | 53.41 | 0 | 12.83 | 14.11 | 16.74 |
| 02:31 | 2 | 16.4 | 84 | 2,147,483,647 | 0.29 | 0 | 2.17 | 5.28 | 50.31 | 0 | 9.98 | 12.17 | 16.75 |
| 02:30 | 2 | 16.3 | 84 | 2,147,483,647 | 0.3 | 0 | 2.17 | 5.6 | 45.25 | 0 | 12.83 | 14.03 | 21.09 |
| 02:29 | 2 | 16.3 | 84 | 2,147,483,647 | 0.29 | 0 | 2.17 | 5.7 | 51.94 | 0 | 12.11 | 13.1 | 18.38 |
| 02:28 | 2 | 16.4 | 84 | 2,147,483,647 | 0.29 | 0 | 2.18 | 5.48 | 48.12 | 0 | 12.83 | 13.56 | 18.92 |
| 02:27 | 2 | 16.4 | 84 | 2,147,483,647 | 0.29 | 0 | 2.17 | 5.28 | 48.55 | 0 | 11.4 | 14.5 | 21.09 |
| 02:26 | 2 | 16.3 | 84 | 2,147,483,647 | 0.3 | 0 | 2.18 | 5.19 | 53.22 | 0 | 12.83 | 14.03 | 19.47 |
| 02:19 | 2 | 16.3 | 84 | 2,147,483,647 | 0.29 | 0 | 2.18 | 5.25 | 47.47 | 0 | 12.83 | 15.9 | 23.28 |
| 02:16 | 2 | 16.3 | 84 | 2,147,483,647 | 0.3 | 0 | 2.18 | 8.09 | 55.51 | 0 | 14.96 | 16.38 | 24.38 |
| 02:15 | 2 | 16.3 | 84 | 2,147,483,647 | 0.3 | 0 | 2.19 | 7.1 | 54.14 | 0 | 13.54 | 14.98 | 21.67 |
| 02:13 | 2 | 16.3 | 84 | 2,147,483,647 | 0.3 | 0 | 2.21 | 7.28 | 51.94 | 0 | 12.11 | 14.06 | 20.59 |
| 02:09 | 3 | 16.3 | 84 | 2,147,483,647 | 0.3 | 0 | 2.2 | 7.33 | 56.5 | 0 | 12.83 | 14.53 | 20.61 |
| 02:08 | 3 | 16.3 | 84 | 2,147,483,647 | 0.29 | 0 | 2.16 | 6.83 | 51.76 | 0 | 14.25 | 16.4 | 24.99 |
| 02:07 | 3 | 16.3 | 84 | 2,147,483,647 | 0.28 | 0 | 2.16 | 6.1 | 50.21 | 0 | 13.54 | 15.01 | 21.17 |